Location: Los Gatos B&B
(42.6926°N, 77.0646°W)
Time: 04:17:01
(UTC-05:00)

Amateur Radio Satellites - All Passes

Search period start: 22 December 2014 03:47
Search period end: 23 December 2014 03:47
Location: Los Gatos B&B, 42.6926°N, 77.0646°W

Satellite Date Start Highest point End Downlink Frequencies (MHz)
Time Altitude Azimuth
VERMONT LUNAR 22 Dec 04:08:35 04:12:03 56° 173° (S) 04:15:31 437.305
SO-50 22 Dec 04:11:11 04:15:05 23° 42° (NE) 04:19:01 436.795
AIST 1 22 Dec 04:28:10 04:31:22 21° 272° (W) 04:34:32
PHONESAT 2.4 22 Dec 04:29:44 04:33:18 56° 172° (S) 04:36:52 2401.200-2431.200
AO-7 22 Dec 04:42:37 04:51:03 85° 108° (ESE) 04:59:25 29.400- 29.500
Gurwin Techsat 1B 22 Dec 04:54:33 04:55:50 11° 304° (NW) 04:57:08 435.225
GONETS M04 22 Dec 05:00:14 05:08:39 52° 89° (E) 05:17:05
CUBESAT XI-V 22 Dec 05:04:40 05:08:19 23° 66° (ENE) 05:11:57 437.345
CUTE-I 22 Dec 05:10:16 05:12:41 13° 89° (E) 05:15:06 437.470
MOZHAYETS 4 22 Dec 05:14:17 05:18:03 24° 266° (W) 05:21:51
HORYU 2 22 Dec 05:18:04 05:19:06 11° 301° (WNW) 05:20:08 437.375
JAS-2 22 Dec 05:20:49 05:26:28 79° 103° (ESE) 05:31:40 435.910
PRISM 22 Dec 05:22:55 05:27:08 73° 75° (ENE) 05:31:21 437.425
VERMONT LUNAR 22 Dec 05:46:46 05:50:12 52° 190° (S) 05:53:38 437.305
SO-50 22 Dec 05:51:11 05:56:00 59° 240° (WSW) 06:00:49 436.795
STRAND 1 22 Dec 05:51:25 05:56:27 60° 72° (ENE) 06:01:28 437.568
PHONESAT 2.4 22 Dec 06:08:16 06:11:49 54° 189° (S) 06:15:22 2401.200-2431.200
Cubesat XI-IV 22 Dec 06:15:17 06:20:30 54° 100° (E) 06:25:41 437.490
AO-7 22 Dec 06:36:34 06:42:53 25° 308° (NW) 06:49:12 29.400- 29.500
CUBESAT XI-V 22 Dec 06:41:10 06:45:32 39° 263° (W) 06:49:54 437.345
CUTE-I 22 Dec 06:48:02 06:53:22 80° 286° (WNW) 06:58:40 437.470
GONETS M04 22 Dec 06:57:45 07:05:43 37° 290° (WNW) 07:13:45
JAS-2 22 Dec 07:07:43 07:10:44 15° 304° (NW) 07:13:37 435.910
VERMONT LUNAR 22 Dec 07:25:25 07:28:07 21° 206° (SSW) 07:30:48 437.305
STRAND 1 22 Dec 07:32:48 07:36:01 17° 269° (W) 07:39:16 437.568
MaSat-1 22 Dec 07:40:57 07:41:38 11° 108° (ESE) 07:42:20 437.345
PHONESAT 2.4 22 Dec 07:47:14 07:50:07 22° 205° (SSW) 07:53:00 2401.200-2431.200
BRITE-PL 22 Dec 07:51:27 07:54:20 16° 92° (E) 07:57:18 437.365/2234.400
Cubesat XI-IV 22 Dec 07:56:15 08:00:11 22° 298° (WNW) 08:04:08 437.490
CANX-2 22 Dec 08:02:49 08:05:34 16° 91° (E) 08:08:18 2200.000
GOMX 1 22 Dec 08:09:13 08:12:24 17° 92° (E) 08:15:42 467.674
HO-68 22 Dec 08:18:33 08:24:52 33° 96° (E) 08:31:07 435.675
COMPASS 1 22 Dec 08:19:43 08:22:25 16° 92° (E) 08:25:06 437.405
DOVE 4 22 Dec 08:26:28 08:29:55 19° 93° (E) 08:33:27 437.250
SEEDS 22 Dec 08:27:04 08:30:32 23° 94° (E) 08:33:57 437.485
CUTE-I 22 Dec 08:30:44 08:32:34 12° 304° (WNW) 08:34:23 437.470
ANTELSAT 22 Dec 08:31:05 08:32:28 11° 59° (ENE) 08:33:51 437.575/2403.000
CUTE 1.7 + AOD 2 22 Dec 08:32:32 08:36:24 31° 96° (E) 08:40:13 437.475
CINEMA 3 22 Dec 08:39:39 08:42:27 15° 91° (E) 08:45:17 145.822/145.860
O/OREOS (USA 219) 22 Dec 08:41:16 08:43:28 13° 50° (NE) 08:45:40 437.305
DANDE 22 Dec 08:41:25 08:44:06 19° 82° (E) 08:47:20 436.750
DX 1 22 Dec 08:56:54 08:59:01 13° 91° (E) 09:01:07 434.975-435.025
TIGRISAT 22 Dec 09:03:04 09:06:30 23° 66° (ENE) 09:10:01 435.000
BUGSAT 1 22 Dec 09:03:58 09:05:18 11° 62° (ENE) 09:06:38 437.445
DUCHIFAT 1 22 Dec 09:11:50 09:14:40 18° 65° (ENE) 09:17:31 145.980
MaSat-1 22 Dec 09:13:14 09:14:40 15° 303° (WNW) 09:16:04 437.345
YUBILEINY 22 Dec 09:14:56 09:21:22 22° 63° (ENE) 09:27:46 435.215
Oscar 11 22 Dec 09:14:57 09:18:46 29° 96° (E) 09:22:33 145.826/435.025
AAUSAT CUBESAT 2 22 Dec 09:17:28 09:21:42 63° 101° (E) 09:25:52 437.432
CUSAT 1 22 Dec 09:22:25 09:26:10 69° 96° (E) 09:31:18 437.405
UKube-1 22 Dec 09:24:47 09:28:26 26° 96° (E) 09:32:03 .
QB50P2 22 Dec 09:25:58 09:29:27 26° 68° (ENE) 09:32:56 145.880/145.840
BRITE-PL 22 Dec 09:28:27 09:33:07 61° 286° (WNW) 09:38:10 437.365/2234.400
UNISAT 6 22 Dec 09:32:16 09:36:28 46° 71° (ENE) 09:40:47 437.425
RS-15 22 Dec 09:34:37 09:40:35 17° 97° (E) 09:46:30 29.354- 29.394
POLYITAN 1 22 Dec 09:35:09 09:38:53 32° 69° (ENE) 09:42:38 437.675
NANOSAT C BR1 22 Dec 09:35:46 09:39:29 32° 69° (ENE) 09:43:14 145.865
CANX-2 22 Dec 09:37:36 09:41:45 46° 288° (WNW) 09:45:51 2200.000
GOMX 1 22 Dec 09:46:04 09:50:46 57° 287° (WNW) 09:55:46 467.674
CUBEBUG 2 22 Dec 09:46:43 09:51:10 43° 98° (E) 09:55:42 437.445
ZACube-1 22 Dec 09:49:44 09:53:52 34° 97° (E) 09:58:02 437.345
QB50P1 22 Dec 09:50:10 09:54:10 45° 72° (ENE) 09:58:12 145.935-145.965
COMPASS 1 22 Dec 09:54:18 09:58:22 44° 288° (WNW) 10:02:24 437.405
VELOX 1 22 Dec 09:58:20 10:01:43 21° 94° (E) 10:05:05 145.980
DELFI C3 22 Dec 09:59:42 10:03:51 77° 102° (ESE) 10:07:56 145.870
50 SAT 22 Dec 10:00:55 10:03:56 19° 93° (E) 10:06:57 437.505
SEEDS 22 Dec 10:02:34 10:06:22 31° 291° (WNW) 10:10:09 437.485
DOVE 4 22 Dec 10:03:13 10:07:52 51° 287° (WNW) 10:12:46 437.250
ANTELSAT 22 Dec 10:04:10 10:08:33 81° 257° (WSW) 10:13:05 437.575/2403.000
HO-68 22 Dec 10:05:56 10:12:46 50° 294° (WNW) 10:19:35 435.675
CUTE 1.7 + AOD 2 22 Dec 10:08:41 10:12:11 24° 293° (WNW) 10:15:39 437.475
ESTCUBE 1 22 Dec 10:09:10 10:10:29 11° 89° (E) 10:11:47 437.505/2401.250
CINEMA 3 22 Dec 10:15:16 10:19:59 62° 286° (WNW) 10:24:51 145.822/145.860
FUNcube-1 22 Dec 10:15:39 10:20:10 63° 101° (E) 10:24:43 145.935
POPSAT HIP 1 22 Dec 10:18:53 10:23:05 85° 257° (WSW) 10:27:20 437.405
O/OREOS (USA 219) 22 Dec 10:18:56 10:23:27 78° 249° (WSW) 10:27:59 437.305
UWE-3 22 Dec 10:21:00 10:25:38 85° 103° (ESE) 10:30:19 435.000/436.395/437.385
DANDE 22 Dec 10:23:42 10:27:07 31° 292° (WNW) 10:31:34 436.750
DX 1 22 Dec 10:31:20 10:35:37 57° 287° (WNW) 10:39:52 434.975-435.025
BUGSAT 1 22 Dec 10:36:12 10:40:16 67° 258° (WSW) 10:44:19 437.445
HUMSAT D 22 Dec 10:36:23 10:40:42 61° 101° (E) 10:45:00 437.325/437.525
TIGRISAT 22 Dec 10:39:04 10:43:03 35° 263° (W) 10:47:10 435.000
CUBEBUG 1 22 Dec 10:41:42 10:45:12 23° 95° (E) 10:48:40 437.445
AISAT 22 Dec 10:41:50 10:46:15 63° 102° (ESE) 10:50:40 437.250
DUCHIFAT 1 22 Dec 10:46:15 10:50:13 42° 261° (W) 10:54:14 145.980
Oscar 11 22 Dec 10:51:11 10:54:51 27° 292° (WNW) 10:58:29 145.826/435.025
AAUSAT CUBESAT 2 22 Dec 10:54:53 10:56:50 13° 298° (WNW) 10:58:47 437.432
UKube-1 22 Dec 11:00:48 11:04:33 29° 292° (WNW) 11:08:18 .
QB50P2 22 Dec 11:01:37 11:05:16 28° 264° (W) 11:08:57 145.880/145.840
CUSAT 1 22 Dec 11:08:45 11:10:24 12° 305° (NW) 11:12:13 437.405
YUBILEINY 22 Dec 11:10:33 11:19:16 83° 264° (W) 11:27:58 435.215
UNISAT 6 22 Dec 11:10:38 11:13:31 17° 269° (W) 11:16:28 437.425
POLYITAN 1 22 Dec 11:11:33 11:14:52 22° 266° (W) 11:18:13 437.675
NANOSAT C BR1 22 Dec 11:12:05 11:15:24 22° 266° (W) 11:18:44 145.865
CUBEBUG 2 22 Dec 11:24:06 11:27:35 21° 294° (WNW) 11:31:08 437.445
ZACube-1 22 Dec 11:26:21 11:30:05 26° 293° (WNW) 11:33:51 437.345
QB50P1 22 Dec 11:27:44 11:30:18 16° 268° (W) 11:32:52 145.935-145.965
TISAT 1 22 Dec 11:32:56 11:36:09 21° 94° (E) 11:39:21 437.305
VELOX 1 22 Dec 11:34:20 11:38:24 37° 290° (WNW) 11:42:28 145.980
50 SAT 22 Dec 11:35:26 11:39:15 36° 289° (WNW) 11:43:04 437.505
DELFI C3 22 Dec 11:37:54 11:38:28 10° 299° (WNW) 11:39:03 145.870
RS-15 22 Dec 11:39:59 11:50:51 75° 118° (ESE) 12:01:47 29.354- 29.394
SPROUT 22 Dec 11:42:08 11:45:43 25° 95° (E) 11:49:16 437.525
ESTCUBE 1 22 Dec 11:43:21 11:47:51 72° 285° (WNW) 11:52:18 437.505/2401.250
FUNcube-1 22 Dec 11:53:29 11:56:01 15° 297° (WNW) 11:58:35 145.935
HO-68 22 Dec 11:57:47 11:58:49 10° 315° (NW) 11:59:52 435.675
UWE-3 22 Dec 11:59:56 12:01:30 12° 299° (WNW) 12:03:05 435.000/436.395/437.385
ISS 22 Dec 12:13:10 12:15:36 19° 134° (SE) 12:18:03 145.825
BEESAT 3 22 Dec 12:13:44 12:17:11 27° 114° (ESE) 12:20:42 437.485
HUMSAT D 22 Dec 12:13:46 12:16:00 14° 297° (WNW) 12:18:13 437.325/437.525
CUBEBUG 1 22 Dec 12:17:45 12:21:36 32° 291° (WNW) 12:25:27 437.445
AISAT 22 Dec 12:20:04 12:22:22 14° 298° (WNW) 12:24:40 437.250
Oscar 19 22 Dec 12:27:27 12:32:28 57° 72° (ENE) 12:37:32 437.125/150
PCSat 22 Dec 12:30:51 12:35:11 25° 108° (ESE) 12:39:32 145.827
AIST 2 22 Dec 12:32:18 12:35:12 18° 111° (ESE) 12:38:09 435.215
ITAMSAT 1 22 Dec 12:47:58 12:52:36 34° 67° (ENE) 12:57:15 435.822/435.867
BEESAT 2 22 Dec 12:54:40 12:58:44 66° 120° (ESE) 13:02:53 435.950
Gurwin Techsat 1B 22 Dec 12:54:48 12:59:05 26° 64° (ENE) 13:03:23 435.225
HORYU 2 22 Dec 13:05:40 13:06:16 10° 59° (ENE) 13:06:52 437.375
TISAT 1 22 Dec 13:08:13 13:12:03 34° 290° (WNW) 13:15:54 437.305
YUBILEINY 22 Dec 13:09:50 13:14:38 16° 285° (WNW) 13:19:26 435.215
SWISSCUBE 22 Dec 13:10:56 13:15:23 38° 98° (E) 13:19:48 437.505
ITUPSAT 1 22 Dec 13:12:15 13:16:39 36° 97° (E) 13:21:00 437.325
SPROUT 22 Dec 13:18:02 13:21:47 30° 291° (WNW) 13:25:32 437.525
AUBIESAT-1 22 Dec 13:25:27 13:27:17 13° 93° (E) 13:29:03 437.475
BEESAT 22 Dec 13:35:21 13:40:05 63° 102° (ESE) 13:44:47 436.000
ISS 22 Dec 13:48:40 13:51:55 55° 330° (NNW) 13:55:11 145.825
M-CUBED/EXP-1 PRIME 22 Dec 13:51:09 13:54:50 28° 99° (E) 13:58:14 437.505
BEESAT 3 22 Dec 13:51:33 13:55:16 32° 312° (NW) 13:59:02 437.485
AO-7 22 Dec 13:51:35 13:58:23 29° 55° (NE) 14:05:13 29.400- 29.500
RS-15 22 Dec 13:54:14 14:04:12 39° 324° (NW) 14:14:22 29.354- 29.394
STARS 22 Dec 14:00:20 14:03:03 16° 92° (E) 14:05:46 437.465
KKS-1 22 Dec 14:07:27 14:11:19 28° 96° (E) 14:15:09 437.445
Oscar 19 22 Dec 14:08:42 14:12:10 18° 269° (W) 14:15:39 437.125/150
AIST 2 22 Dec 14:09:21 14:13:28 48° 308° (NW) 14:17:39 435.215
PCSat 22 Dec 14:13:02 14:18:16 49° 306° (NW) 14:23:33 145.827
ITAMSAT 1 22 Dec 14:27:33 14:32:05 30° 264° (W) 14:36:39 435.822/435.867
Gurwin Techsat 1B 22 Dec 14:33:45 14:38:47 44° 261° (W) 14:43:52 435.225
BEESAT 2 22 Dec 14:34:38 14:37:25 17° 319° (NW) 14:40:13 435.950
HORYU 2 22 Dec 14:37:43 14:42:11 89° 76° (ENE) 14:46:43 437.375
SWISSCUBE 22 Dec 14:49:13 14:53:02 24° 295° (WNW) 14:56:49 437.505
ITUPSAT 1 22 Dec 14:50:28 14:54:23 26° 294° (WNW) 14:58:16 437.325
AUBIESAT-1 22 Dec 14:58:30 15:02:44 56° 292° (WNW) 15:06:34 437.475
GONETS M04 22 Dec 15:09:55 15:17:01 27° 65° (ENE) 15:24:02
BEESAT 22 Dec 15:14:34 15:17:25 16° 299° (WNW) 15:20:15 436.000
AIST 1 22 Dec 15:21:20 15:24:26 19° 87° (E) 15:27:32
M-CUBED/EXP-1 PRIME 22 Dec 15:26:06 15:29:47 27° 299° (WNW) 15:33:11 437.505
ISS 22 Dec 15:26:33 15:29:02 19° 350° (N) 15:31:30 145.825
JAS-2 22 Dec 15:31:54 15:38:51 43° 68° (ENE) 15:45:12 435.910
STARS 22 Dec 15:35:30 15:39:48 50° 288° (WNW) 15:44:06 437.465
AO-7 22 Dec 15:42:12 15:50:29 71° 254° (WSW) 15:58:52 29.400- 29.500
KKS-1 22 Dec 15:44:03 15:47:54 29° 292° (WNW) 15:51:45 437.445
PCSat 22 Dec 16:01:28 16:03:03 11° 328° (NNW) 16:04:39 145.827
Cubesat XI-IV 22 Dec 16:01:30 16:04:08 14° 58° (ENE) 16:06:46 437.490
RS-15 22 Dec 16:12:40 16:20:52 23° 358° (N) 16:29:15 29.354- 29.394
CUTE-I 22 Dec 16:32:11 16:36:26 25° 64° (ENE) 16:40:41 437.470
AIST 1 22 Dec 16:57:46 17:01:49 36° 284° (WNW) 17:05:52
ISS 22 Dec 17:04:00 17:06:28 19° 10° (N) 17:08:55 145.825
GONETS M04 22 Dec 17:05:57 17:14:39 71° 267° (W) 17:23:15
MOZHAYETS 4 22 Dec 17:07:44 17:12:23 77° 102° (ESE) 17:16:58
MaSat-1 22 Dec 17:08:18 17:10:16 22° 59° (ENE) 17:12:20 437.345
JAS-2 22 Dec 17:16:48 17:23:50 40° 263° (W) 17:30:19 435.910
Cubesat XI-IV 22 Dec 17:38:09 17:43:29 87° 256° (WSW) 17:48:50 437.490
AO-7 22 Dec 17:41:11 17:44:41 13° 274° (W) 17:48:13 29.400- 29.500
STRAND 1 22 Dec 18:02:13 18:05:46 19° 92° (E) 18:09:19 437.568
CUTE-I 22 Dec 18:11:09 18:16:14 45° 261° (W) 18:21:20 437.470
CUSAT 1 22 Dec 18:17:36 18:22:19 17° 60° (ENE) 18:27:16 437.405
RS-15 22 Dec 18:27:46 18:37:48 36° 33° (NNE) 18:48:08 29.354- 29.394
CUBESAT XI-V 22 Dec 18:36:58 18:41:26 48° 99° (E) 18:45:53 437.345
ISS 22 Dec 18:40:20 18:43:35 55° 30° (NNE) 18:46:47 145.825
PRISM 22 Dec 18:40:49 18:44:58 73° 285° (WNW) 18:49:04 437.425
MOZHAYETS 4 22 Dec 18:47:02 18:48:57 13° 300° (WNW) 18:50:52
HO-68 22 Dec 18:48:32 18:54:23 28° 59° (ENE) 19:00:15 435.675
CANX-2 22 Dec 18:57:39 18:59:55 14° 63° (ENE) 19:02:12 2200.000
BRITE-PL 22 Dec 19:04:26 19:06:58 16° 64° (ENE) 19:09:31 437.365/2234.400
GONETS M04 22 Dec 19:06:16 19:09:43 13° 287° (WNW) 19:13:10
COMPASS 1 22 Dec 19:13:09 19:15:18 14° 63° (ENE) 19:17:27 437.405
DANDE 22 Dec 19:18:37 19:25:42 36° 71° (ENE) 19:33:29 436.750
GOMX 1 22 Dec 19:19:32 19:22:10 17° 64° (ENE) 19:24:49 467.674
SEEDS 22 Dec 19:20:46 19:23:49 20° 66° (ENE) 19:26:53 437.485
Cubesat XI-IV 22 Dec 19:23:10 19:24:18 11° 273° (W) 19:25:27 437.490
CUTE 1.7 + AOD 2 22 Dec 19:26:41 19:30:12 26° 68° (ENE) 19:33:45 437.475
DOVE 4 22 Dec 19:34:17 19:37:03 18° 64° (ENE) 19:39:52 437.250
STRAND 1 22 Dec 19:40:19 19:45:16 53° 289° (WNW) 19:50:13 437.568
CINEMA 3 22 Dec 19:43:43 19:45:48 14° 62° (ENE) 19:47:55 145.822/145.860
DX 1 22 Dec 19:53:51 19:56:09 14° 62° (ENE) 19:58:28 434.975-435.025
CUSAT 1 22 Dec 19:58:41 20:06:34 71° 78° (ENE) 20:15:04 437.405
SO-50 22 Dec 20:06:43 20:10:53 38° 116° (ESE) 20:15:12 436.795
AAUSAT CUBESAT 2 22 Dec 20:09:25 20:13:27 46° 72° (ENE) 20:17:32 437.432
Oscar 11 22 Dec 20:10:49 20:14:24 26° 67° (ENE) 20:18:00 145.826/435.025
CUBESAT XI-V 22 Dec 20:15:22 20:18:30 19° 296° (WNW) 20:21:38 437.345
ISS 22 Dec 20:17:29 20:19:54 19° 226° (SW) 20:22:17 145.825
UKube-1 22 Dec 20:20:54 20:24:28 26° 67° (ENE) 20:28:03 .
CANX-2 22 Dec 20:31:10 20:35:22 58° 260° (W) 20:39:38 2200.000
BEESAT 3 22 Dec 20:32:26 20:35:55 25° 45° (NE) 20:39:22 437.485
HO-68 22 Dec 20:34:30 20:41:36 63° 257° (WSW) 20:48:44 435.675
RS-15 22 Dec 20:40:17 20:51:36 86° 239° (WSW) 21:03:26 29.354- 29.394
BRITE-PL 22 Dec 20:41:12 20:45:10 43° 261° (W) 20:49:09 437.365/2234.400
CUBEBUG 2 22 Dec 20:46:21 20:50:14 37° 70° (ENE) 20:54:13 437.445
COMPASS 1 22 Dec 20:46:22 20:50:31 59° 260° (W) 20:54:44 437.405
ZACube-1 22 Dec 20:47:11 20:50:46 28° 68° (ENE) 20:54:27 437.345
DELFI C3 22 Dec 20:48:51 20:52:51 53° 73° (ENE) 20:56:53 145.870
50 SAT 22 Dec 20:51:03 20:53:15 14° 63° (ENE) 20:55:28 437.505
AIST 2 22 Dec 20:52:44 20:55:54 20° 42° (NE) 20:59:01 435.215
SEEDS 22 Dec 20:55:23 20:59:22 39° 262° (W) 21:03:24 437.485
GOMX 1 22 Dec 20:56:02 20:59:58 43° 262° (W) 21:03:59 467.674
VELOX 1 22 Dec 20:57:19 21:00:43 22° 66° (ENE) 21:04:07 145.980
DANDE 22 Dec 21:01:45 21:09:25 57° 266° (W) 21:17:51 436.750
CUTE 1.7 + AOD 2 22 Dec 21:02:17 21:06:01 29° 264° (W) 21:09:47 437.475
ESTCUBE 1 22 Dec 21:09:50 21:11:56 13° 61° (ENE) 21:14:01 437.505/2401.250
DOVE 4 22 Dec 21:10:37 21:14:31 40° 262° (W) 21:18:32 437.250
FUNcube-1 22 Dec 21:12:37 21:16:41 52° 73° (ENE) 21:20:52 145.935
BEESAT 2 22 Dec 21:14:07 21:18:15 52° 53° (NE) 21:22:18 435.950
PCSat 22 Dec 21:17:08 21:21:44 27° 47° (NE) 21:26:18 145.827
CINEMA 3 22 Dec 21:18:24 21:22:30 58° 260° (W) 21:26:45 145.822/145.860
UWE-3 22 Dec 21:19:15 21:23:26 75° 75° (ENE) 21:27:45 435.000/436.395/437.385
DX 1 22 Dec 21:27:38 21:31:55 60° 259° (WSW) 21:36:13 434.975-435.025
HUMSAT D 22 Dec 21:29:29 21:33:27 47° 72° (ENE) 21:37:30 437.325/437.525
CUBEBUG 1 22 Dec 21:39:09 21:42:34 23° 66° (ENE) 21:45:58 437.445
AISAT 22 Dec 21:40:44 21:45:05 63° 74° (ENE) 21:49:28 437.250
CUSAT 1 22 Dec 21:42:41 21:49:09 28° 274° (W) 21:55:59 437.405
Oscar 11 22 Dec 21:46:39 21:50:27 30° 264° (W) 21:54:18 145.826/435.025
AAUSAT CUBESAT 2 22 Dec 21:46:51 21:49:23 15° 269° (W) 21:51:55 437.432
SO-50 22 Dec 21:47:30 21:51:30 29° 315° (NW) 21:55:38 436.795
ANTELSAT 22 Dec 21:56:18 21:59:56 22° 93° (E) 22:03:32 437.575/2403.000
UKube-1 22 Dec 21:56:42 22:00:31 30° 263° (W) 22:04:20 .
POPSAT HIP 1 22 Dec 22:05:03 22:07:32 15° 92° (E) 22:10:00 437.405
BEESAT 3 22 Dec 22:10:20 22:14:12 37° 244° (WSW) 22:18:00 437.485
YUBILEINY 22 Dec 22:18:14 22:24:41 24° 80° (E) 22:31:07 435.215
BUGSAT 1 22 Dec 22:19:06 22:21:40 16° 93° (E) 22:24:14 437.445
ZACube-1 22 Dec 22:23:37 22:27:07 26° 265° (W) 22:30:43 437.345
CUBEBUG 2 22 Dec 22:24:06 22:27:06 19° 268° (W) 22:30:11 437.445
50 SAT 22 Dec 22:24:08 22:28:02 50° 260° (W) 22:32:00 437.505
DELFI C3 22 Dec 22:26:30 22:28:26 13° 270° (W) 22:30:23 145.870
TISAT 1 22 Dec 22:26:56 22:29:50 19° 65° (ENE) 22:32:45 437.305
TIGRISAT 22 Dec 22:29:38 22:34:10 45° 99° (E) 22:38:41 435.000
AIST 2 22 Dec 22:30:38 22:34:52 57° 241° (WSW) 22:39:00 435.215
DUCHIFAT 1 22 Dec 22:30:50 22:34:32 28° 96° (E) 22:38:13 145.980
VELOX 1 22 Dec 22:33:00 22:37:05 36° 262° (W) 22:41:11 145.980
SPROUT 22 Dec 22:37:39 22:40:58 22° 66° (ENE) 22:44:17 437.525
ESTCUBE 1 22 Dec 22:43:41 22:48:13 71° 258° (WSW) 22:52:45 437.505/2401.250
QB50P2 22 Dec 22:45:55 22:50:00 42° 99° (E) 22:54:04 145.880/145.840
DANDE 22 Dec 22:49:36 22:51:35 11° 283° (WNW) 22:53:35 436.750
FUNcube-1 22 Dec 22:51:13 22:53:23 14° 270° (W) 22:55:36 145.935
BEESAT 2 22 Dec 22:53:29 22:56:04 16° 250° (WSW) 22:58:38 435.950
RS-15 22 Dec 22:54:30 23:02:24 22° 260° (W) 23:10:33 29.354- 29.394
POLYITAN 1 22 Dec 22:55:32 22:59:45 54° 100° (E) 23:03:59 437.675
NANOSAT C BR1 22 Dec 22:55:36 22:59:47 54° 100° (E) 23:03:58 145.865
O/OREOS (USA 219) 22 Dec 22:56:55 22:57:31 10° 97° (E) 22:58:06 437.305
UNISAT 6 22 Dec 22:59:59 23:04:44 87° 283° (WNW) 23:09:28 437.425
PCSat 22 Dec 23:00:10 23:05:25 51° 246° (WSW) 23:10:37 145.827
HUMSAT D 22 Dec 23:07:09 23:09:32 15° 269° (W) 23:11:56 437.325/437.525
QB50P1 22 Dec 23:10:24 23:14:41 80° 103° (ESE) 23:18:57 145.935-145.965
CUBEBUG 1 22 Dec 23:14:47 23:18:45 34° 263° (W) 23:22:44 437.445
AISAT 22 Dec 23:20:17 23:22:07 12° 270° (W) 23:23:59 437.250
ANTELSAT 22 Dec 23:32:25 23:36:52 42° 289° (WNW) 23:41:18 437.575/2403.000
POPSAT HIP 1 22 Dec 23:39:34 23:43:42 49° 288° (WNW) 23:47:49 437.405
BUGSAT 1 22 Dec 23:53:32 23:57:21 41° 289° (WNW) 00:01:12 437.445
TISAT 1 23 Dec 00:01:25 00:05:22 40° 261° (W) 00:09:21 437.305
DUCHIFAT 1 23 Dec 00:06:45 00:10:18 26° 292° (WNW) 00:13:51 145.980
TIGRISAT 23 Dec 00:07:06 00:10:35 21° 295° (WNW) 00:14:05 435.000
YUBILEINY 23 Dec 00:11:49 00:20:33 75° 280° (W) 00:29:18 435.215
SPROUT 23 Dec 00:12:59 00:16:52 34° 263° (W) 00:20:46 437.525
AUBIESAT-1 23 Dec 00:13:23 00:17:22 26° 61° (ENE) 00:21:21 437.475
SWISSCUBE 23 Dec 00:18:17 00:22:53 48° 71° (ENE) 00:27:30 437.505
ITUPSAT 1 23 Dec 00:19:50 00:24:24 46° 71° (ENE) 00:29:00 437.325
QB50P2 23 Dec 00:22:39 00:25:36 18° 295° (WNW) 00:28:33 145.880/145.840
O/OREOS (USA 219) 23 Dec 00:31:46 00:36:13 76° 294° (WNW) 00:40:42 437.305
NANOSAT C BR1 23 Dec 00:32:48 00:35:14 15° 297° (WNW) 00:37:39 145.865
POLYITAN 1 23 Dec 00:32:49 00:35:16 15° 297° (WNW) 00:37:43 437.675
Oscar 19 23 Dec 00:39:12 00:42:52 19° 92° (E) 00:46:30 437.125/150
UNISAT 6 23 Dec 00:39:33 00:40:46 11° 301° (WNW) 00:41:58 437.425
M-CUBED/EXP-1 PRIME 23 Dec 00:40:01 00:44:42 48° 66° (ENE) 00:49:25 437.505
BEESAT 23 Dec 00:42:33 00:47:20 78° 75° (ENE) 00:52:09 436.000
QB50P1 23 Dec 00:48:59 00:49:56 11° 300° (WNW) 00:50:53 145.935-145.965
STARS 23 Dec 00:58:49 01:01:33 17° 63° (ENE) 01:04:17 437.465
ITAMSAT 1 23 Dec 01:02:45 01:03:46 11° 88° (E) 01:04:46 435.822/435.867
KKS-1 23 Dec 01:06:43 01:10:30 28° 68° (ENE) 01:14:18 437.445
AUBIESAT-1 23 Dec 01:47:27 01:52:03 42° 257° (WSW) 01:56:41 437.475
VERMONT LUNAR 23 Dec 01:51:44 01:54:31 22° 155° (SSE) 01:57:18 437.305
SWISSCUBE 23 Dec 01:57:39 02:01:00 19° 268° (W) 02:04:22 437.505
ITUPSAT 1 23 Dec 01:59:00 02:02:31 20° 267° (W) 02:06:02 437.325
YUBILEINY 23 Dec 02:14:09 02:19:03 16° 302° (WNW) 02:23:58 435.215
M-CUBED/EXP-1 PRIME 23 Dec 02:16:10 02:19:52 22° 262° (W) 02:23:37 437.505
Oscar 19 23 Dec 02:17:27 02:22:32 55° 289° (WNW) 02:27:35 437.125/150
PHONESAT 2.4 23 Dec 02:17:50 02:20:44 23° 155° (SSE) 02:23:38 2401.200-2431.200
BEESAT 23 Dec 02:24:13 02:25:44 11° 271° (W) 02:27:16 436.000
HORYU 2 23 Dec 02:29:46 02:32:41 17° 92° (E) 02:35:35 437.375
STARS 23 Dec 02:33:21 02:37:37 51° 260° (W) 02:41:55 437.465
ITAMSAT 1 23 Dec 02:38:45 02:43:57 89° 105° (ESE) 02:49:08 435.822/435.867
KKS-1 23 Dec 02:43:17 02:47:05 28° 264° (W) 02:50:55 437.445
Gurwin Techsat 1B 23 Dec 02:48:49 02:54:08 71° 102° (ESE) 02:59:25 435.225
SO-50 23 Dec 02:58:51 03:00:04 11° 29° (NNE) 03:01:17 436.795
AIST 1 23 Dec 03:03:58 03:08:11 55° 79° (E) 03:12:21
VERMONT LUNAR 23 Dec 03:28:59 03:32:26 53° 171° (S) 03:35:54 437.305
